Theta_e
315 316 317 318 318 318 318 318 317 318 317 316 317 316 315 314 314 316 317 312 310 312 312 313 313 313 313 313 313 313 313 313 313 313 314 314 314 314 314 314 314 312 311 310 308 307 305 304 303 301 301 301 300 299 299 298 298 297 296 296 296 295 295 294 294 294 294 294 294 294 293 293 293 292 292 291 290 290 290 289 288 288 288 288 288 288
315 315 317 318 318 318 318 318 318 317 317 316 315 315 314 315 315 317 318 311 309 311 312 313 313 313 313 313 313 313 313 313 313 313 314 314 315 315 315 315 314 313 311 309 308 307 305 303 302 300 300 300 299 298 298 298 297 297 296 296 296 295 294 294 294 294 294 294 294 294 294 294 293 292 292 292 291 290 289 288 287 287 288 287 287 287
316 316 316 317 317 316 316 315 316 316 316 316 316 315 315 316 316 317 316 310 308 310 312 313 312 313 313 313 313 313 313 313 314 314 314 315 315 315 315 315 315 313 310 308 307 305 304 302 301 299 299 299 299 298 297 297 297 297 297 296 296 295 294 294 293 294 294 294 294 294 294 294 293 292 291 292 291 289 288 287 287 287 287 287 287 286
316 316 316 316 316 316 315 313 314 314 315 316 316 315 315 317 317 315 313 311 309 310 311 312 312 313 313 313 313 313 313 314 314 315 315 316 316 316 316 316 315 313 310 308 306 304 303 302 301 299 299 299 298 298 297 297 297 296 296 296 296 295 294 293 293 293 294 294 294 294 293 292 292 291 290 289 289 288 287 287 287 287 287 286 286 286
316 315 315 315 315 316 316 314 313 314 314 316 317 316 316 317 317 316 315 313 312 312 311 311 312 313 314 315 315 314 314 314 314 314 314 315 315 316 316 317 316 313 311 309 306 304 303 302 301 299 299 298 298 297 297 297 297 296 296 296 295 295 294 293 293 293 294 293 292 292 291 290 290 290 289 288 289 288 288 288 287 287 287 286 286 286
315 314 313 315 315 315 316 315 315 316 314 315 318 318 317 317 317 318 318 315 314 314 313 312 314 314 314 315 316 315 314 313 313 313 313 314 314 315 316 316 315 312 311 310 307 305 302 302 301 299 298 298 298 297 296 296 296 296 296 296 295 294 294 294 293 293 292 292 291 290 290 290 290 290 290 290 290 290 289 289 288 288 287 286 286 285
315 312 312 316 316 316 317 315 316 317 314 314 318 320 318 317 317 317 317 316 314 314 313 313 314 315 314 313 315 315 314 313 314 314 314 314 315 316 317 317 314 311 310 309 307 305 303 302 301 299 298 297 297 297 296 296 296 296 296 295 295 294 294 293 293 292 291 291 290 290 290 291 291 292 292 291 291 291 290 289 288 287 286 286 286 285
316 313 312 316 316 316 316 315 317 317 315 315 317 317 316 316 317 316 316 315 314 314 315 314 314 315 315 315 315 315 314 313 314 314 315 314 315 316 316 319 315 311 311 309 307 305 303 302 301 299 298 297 297 297 296 296 295 295 295 295 295 294 294 293 292 291 291 290 291 291 291 292 292 292 292 291 290 289 289 288 287 286 286 286 285 285
318 317 316 315 314 316 316 316 317 317 316 315 313 313 313 314 315 315 314 314 314 314 315 315 315 315 316 315 315 315 313 313 313 313 313 313 315 315 315 319 316 312 311 309 307 306 303 302 301 300 298 297 297 296 296 295 295 295 295 295 295 294 294 293 292 291 290 290 290 291 291 291 292 291 291 290 289 288 287 287 287 286 286 286 285 285
316 312 313 314 315 316 315 312 314 317 316 312 310 311 312 312 313 313 313 313 313 315 316 316 315 315 315 313 314 315 313 313 313 313 313 314 316 317 317 321 317 312 311 310 308 307 304 303 301 300 298 297 296 296 296 295 295 295 295 295 295 294 293 292 291 291 290 290 290 290 290 290 290 290 290 289 289 288 287 287 287 286 286 286 286 285
310 306 308 313 315 313 310 306 307 312 312 310 311 313 313 313 312 311 312 312 314 317 318 317 315 315 315 314 314 315 314 314 314 314 314 315 315 317 320 321 316 313 312 310 308 307 305 303 301 300 298 297 296 296 295 295 295 294 294 294 294 294 293 292 291 291 290 290 290 290 290 290 290 290 289 289 289 288 288 287 287 286 286 286 286 285
312 309 310 312 312 310 309 308 306 307 308 311 312 312 314 314 312 312 312 312 315 318 316 316 317 316 315 314 313 314 314 314 314 314 314 315 315 317 322 321 315 313 312 310 309 308 306 303 301 299 298 296 296 295 295 295 295 294 294 294 294 293 292 292 291 290 290 290 289 289 289 289 289 289 289 289 289 288 287 287 287 287 286 286 285 285
316 315 313 313 310 309 312 312 308 306 307 311 312 312 315 316 315 316 316 315 316 317 314 314 317 318 315 313 313 314 314 313 314 314 314 315 314 315 323 323 316 314 313 310 308 307 305 303 301 299 298 296 295 295 295 294 294 294 294 293 293 293 292 292 291 290 290 289 289 289 289 289 288 289 288 288 288 288 287 287 286 286 286 285 285 285
318 318 315 314 311 310 312 313 313 311 308 309 312 313 315 316 317 320 318 317 318 316 313 312 315 316 313 312 314 314 313 314 314 314 315 316 314 316 324 324 318 315 312 309 308 307 305 303 301 299 298 297 296 295 295 294 294 294 293 293 293 293 292 291 291 290 289 289 289 289 288 288 288 288 288 287 287 287 286 286 285 285 285 285 285 284
317 317 315 315 314 312 312 313 316 315 310 310 312 314 315 315 316 317 315 316 316 315 313 312 312 313 311 311 315 314 314 315 314 314 316 316 316 320 324 321 317 313 310 308 307 305 304 302 301 300 298 297 296 295 294 294 294 294 293 293 293 293 292 291 291 290 289 289 288 288 288 288 288 287 287 287 286 286 285 285 285 284 284 284 284 283
315 317 317 316 314 312 313 315 316 315 312 311 312 314 315 315 315 315 315 315 314 314 314 313 312 311 311 313 315 314 314 314 314 314 315 315 317 320 321 319 316 311 307 307 305 304 303 302 301 300 298 297 296 295 294 294 294 294 293 293 293 293 292 291 290 290 289 289 288 288 288 287 287 287 287 286 286 285 285 284 284 284 284 284 283 283
314 317 318 313 311 310 309 312 314 314 314 312 312 314 314 315 315 316 317 316 313 314 314 313 313 313 312 314 315 314 314 313 314 314 313 315 316 318 320 319 316 311 308 306 305 303 302 301 300 299 298 297 296 295 294 294 294 293 293 293 293 292 292 291 290 289 289 288 288 288 287 287 286 286 286 285 285 285 284 284 284 284 284 283 283 283
315 316 317 313 312 308 303 307 311 311 312 312 312 314 313 313 313 313 315 316 314 316 315 313 314 312 311 314 315 313 313 313 313 313 313 315 316 317 319 319 317 314 309 306 303 302 301 300 299 298 298 297 295 295 294 294 294 293 293 293 293 292 291 290 290 289 288 288 288 287 287 286 286 285 285 285 284 284 284 284 284 284 283 283 282 282
318 316 317 312 311 307 304 308 310 308 309 309 310 311 311 312 313 312 314 315 314 316 315 313 314 313 312 313 313 313 313 313 312 313 313 314 315 317 319 318 317 314 311 307 304 303 301 300 299 298 297 296 295 294 294 294 293 293 293 292 292 292 291 290 289 289 288 288 287 287 286 286 285 285 285 284 284 283 283 283 284 284 283 282 281 280
317 316 316 310 307 308 306 308 312 311 309 307 307 309 309 310 312 312 314 314 313 314 314 314 315 314 313 313 313 314 314 313 313 313 314 313 313 316 318 317 316 316 313 310 307 304 302 300 299 298 297 296 295 294 294 293 293 292 292 292 292 291 290 290 289 288 288 287 287 286 286 285 285 284 284 284 283 283 283 284 284 283 282 281 280 279
316 316 316 309 305 308 309 309 311 313 311 308 308 309 309 309 310 310 312 313 313 314 313 314 314 313 312 313 313 314 314 314 314 314 315 315 314 315 317 317 316 316 315 312 308 305 303 301 299 298 297 296 295 294 294 293 292 292 292 291 291 291 290 289 288 288 288 287 286 286 285 284 284 284 284 283 283 283 284 284 283 282 281 280 279 279
315 315 315 312 308 309 311 312 312 314 314 312 310 310 311 311 311 311 313 314 313 313 313 314 314 312 312 313 313 313 314 314 314 315 316 317 316 316 317 317 317 316 315 312 309 306 304 301 299 297 296 295 294 294 293 292 292 292 291 291 291 290 289 289 288 288 287 286 286 285 284 284 283 283 283 283 283 283 283 283 282 281 280 279 279 278
316 316 315 314 313 313 313 311 312 314 315 313 312 312 312 311 312 313 314 314 313 313 313 313 314 313 312 314 313 313 313 313 313 315 315 316 318 318 318 317 317 316 314 312 309 307 305 302 299 297 296 295 294 293 293 292 292 291 291 291 290 290 289 288 288 287 286 285 285 284 284 283 283 283 283 282 283 283 283 282 281 280 280 279 278 278
317 317 315 314 314 314 313 309 307 309 311 312 312 312 313 312 312 313 313 312 313 314 313 313 314 314 313 314 314 313 313 313 314 314 313 315 317 318 318 317 316 316 314 311 308 306 304 301 298 296 295 295 294 293 293 292 292 291 291 290 290 289 289 288 287 286 286 285 284 283 283 282 282 282 282 282 283 283 282 281 280 280 279 279 278 278
316 317 314 314 314 314 314 310 307 307 308 310 311 311 313 313 313 314 312 311 313 314 313 313 314 313 312 314 315 313 313 313 313 313 313 315 317 318 317 316 315 314 311 309 307 304 302 300 298 296 295 295 294 294 293 292 292 291 291 290 290 289 288 287 287 286 285 284 283 283 282 282 282 282 282 282 282 282 281 280 279 279 279 278 278 277
316 318 314 313 314 315 314 313 311 310 307 308 310 311 313 314 313 314 313 312 313 314 313 313 313 312 311 312 313 311 312 312 312 313 314 314 316 317 317 316 315 312 309 308 306 303 301 299 297 296 295 295 294 294 293 292 292 291 291 290 290 289 288 287 286 285 284 284 283 282 282 281 281 281 282 282 282 281 281 280 279 279 278 278 277 277
315 317 313 312 312 313 313 313 313 312 309 309 310 311 312 314 314 313 313 313 313 313 313 313 313 313 312 311 311 311 311 312 311 312 313 313 314 315 316 316 314 311 308 307 305 303 301 299 298 296 295 295 295 294 293 292 291 291 290 290 289 288 287 286 285 285 284 283 283 282 281 281 281 281 282 282 281 281 280 279 279 278 278 277 277 277
313 314 312 312 312 311 311 311 311 311 311 311 312 311 311 312 314 315 314 313 312 313 313 313 314 315 314 312 312 312 311 312 311 311 313 313 313 313 313 312 311 310 308 307 305 304 302 300 299 297 296 295 294 293 293 292 291 291 290 290 289 287 286 286 285 284 283 283 282 282 281 281 281 281 281 281 281 280 279 279 278 277 277 278 278 277
313 313 312 313 313 311 311 310 310 310 310 311 312 312 312 312 313 314 313 312 313 313 313 313 314 315 314 312 312 312 311 312 311 311 312 312 312 313 312 311 310 309 308 307 307 305 303 302 300 299 297 296 294 293 292 292 291 290 290 289 288 287 286 285 284 283 283 282 282 282 281 281 281 281 281 281 280 279 278 278 278 278 278 278 277 276
312 311 311 312 312 312 311 311 311 311 311 312 312 313 313 313 313 313 312 312 312 313 312 312 314 314 313 312 311 311 311 311 311 311 311 311 311 312 312 311 311 310 309 308 308 307 305 304 303 301 300 297 295 294 293 292 291 290 290 289 287 286 285 285 284 283 283 282 282 282 281 281 281 281 281 280 279 278 278 278 278 278 278 277 277 276
311 310 310 311 311 312 312 311 312 312 312 312 312 312 312 313 313 313 313 313 313 313 312 312 313 313 312 311 311 310 311 311 311 311 311 311 311 311 311 311 310 310 310 309 309 308 307 305 304 303 302 299 296 294 293 292 291 290 289 288 287 285 285 284 283 283 282 282 282 281 281 281 280 280 280 279 278 278 278 278 278 278 277 276 276 276
310 310 310 311 312 312 311 311 311 311 311 311 311 311 311 311 312 312 312 312 312 313 313 313 314 313 311 311 311 311 311 311 311 311 311 311 311 310 310 310 310 310 310 310 309 310 309 307 305 304 303 301 297 294 293 292 291 290 289 287 286 285 284 283 283 282 282 282 281 281 281 280 280 280 279 278 278 278 278 278 277 277 276 276 276 275
311 311 311 311 312 312 312 311 311 311 313 313 312 311 311 311 311 311 311 312 312 312 313 313 313 312 311 311 311 311 311 311 311 311 311 310 310 310 311 310 310 310 309 310 310 309 309 308 306 304 303 301 297 294 293 292 291 290 288 287 286 284 283 283 282 282 282 281 281 280 280 280 280 279 278 277 278 277 277 277 276 276 275 275 275 274
311 311 311 311 313 313 312 312 312 313 314 314 313 312 311 311 311 311 311 311 311 311 311 311 311 311 311 312 311 311 311 311 311 311 311 310 310 310 311 310 310 310 310 310 310 309 309 309 307 305 302 300 297 295 294 292 291 289 288 287 285 284 283 282 282 281 281 280 280 279 279 279 279 278 277 277 277 277 276 276 275 275 274 274 274 272
312 312 311 312 313 313 313 314 315 315 315 313 313 312 311 310 311 311 312 311 311 311 311 311 311 311 311 311 311 311 312 311 311 311 310 310 310 310 310 310 310 310 309 309 309 308 308 308 307 304 300 298 296 294 293 291 290 289 287 285 284 283 282 282 281 281 280 279 279 278 278 278 277 276 276 276 276 276 275 275 274 274 273 273 272 270
312 312 312 313 313 313 313 314 316 317 314 312 312 311 311 311 311 312 313 312 311 311 311 311 311 311 311 312 311 311 311 311 311 311 310 310 310 310 310 309 309 309 309 308 308 309 309 307 305 302 299 296 294 293 291 290 289 288 286 284 283 282 281 281 280 280 279 278 278 277 277 277 276 275 275 275 275 274 274 274 273 273 272 271 269 269
312 312 312 314 314 314 314 314 315 316 314 313 314 312 312 312 311 312 314 313 311 311 311 311 311 311 311 311 311 311 311 311 311 310 310 310 310 310 310 309 309 309 308 308 309 308 306 304 301 299 296 294 292 291 291 289 288 287 284 283 282 281 280 280 279 279 278 277 277 276 276 276 276 275 274 274 274 273 273 273 272 271 270 269 268 268
312 312 313 314 315 315 315 314 315 316 315 315 315 313 312 312 312 312 314 314 313 311 311 311 311 311 311 311 311 310 311 312 311 311 310 310 310 310 310 309 309 308 308 309 309 307 302 299 298 297 295 293 291 291 290 289 287 286 283 282 281 280 279 279 279 278 277 277 276 276 275 275 275 274 273 273 273 273 272 272 271 270 270 269 268 268
312 312 312 313 314 315 316 316 316 316 315 314 313 313 312 313 312 312 315 315 314 312 312 311 311 312 311 311 311 311 312 312 312 311 310 310 310 310 309 309 308 308 308 308 307 305 301 297 295 295 293 292 291 290 289 288 286 284 282 281 280 279 279 279 278 277 277 276 275 275 275 274 274 274 273 273 273 272 272 271 270 269 269 268 268 268
313 312 312 314 314 314 315 316 316 315 315 314 313 312 312 313 312 315 317 317 314 311 312 311 311 312 311 311 311 312 312 312 311 311 310 310 310 309 309 309 308 309 309 307 303 301 298 295 294 294 293 291 290 289 288 287 285 283 282 280 279 279 279 278 278 277 276 276 275 274 274 275 274 274 274 273 273 272 271 270 269 268 268 268 268 268
314 313 313 314 314 314 315 316 316 315 315 315 312 311 312 312 314 316 317 316 312 312 312 311 312 312 311 311 311 311 311 311 310 310 310 309 309 309 309 308 307 306 305 303 299 297 294 292 293 293 292 291 289 288 286 285 284 282 281 280 279 279 278 278 277 276 276 275 274 274 274 275 275 274 274 273 273 272 270 269 269 268 268 268 267 267
314 314 314 314 314 313 313 315 315 314 314 312 312 312 312 314 314 315 314 312 312 313 312 312 312 311 311 311 310 310 310 310 309 309 309 309 308 308 307 305 304 302 299 296 295 294 292 291 291 290 290 289 287 286 285 284 283 282 280 279 279 278 278 277 276 276 275 274 274 274 274 274 274 274 273 272 272 271 270 269 269 269 268 268 267 267
314 314 314 314 314 314 314 315 315 315 315 313 312 312 312 313 314 313 312 312 312 312 311 311 311 311 310 310 310 310 310 309 309 309 308 308 308 308 307 304 302 301 298 296 295 293 291 292 292 289 288 287 285 284 284 283 282 281 279 279 278 278 277 276 275 275 274 274 273 274 274 274 274 273 273 272 271 270 269 269 269 268 268 268 267 266
315 315 315 314 313 314 315 315 315 315 314 312 312 312 312 312 312 312 312 312 312 312 311 311 310 311 311 310 310 310 309 309 309 308 308 308 307 308 307 303 300 299 297 296 295 291 290 292 292 289 286 285 284 283 283 282 282 280 279 279 278 276 276 275 275 274 274 273 273 274 274 274 273 272 272 271 270 269 269 268 268 268 268 268 267 267
313 312 311 311 311 313 314 314 313 312 312 311 311 312 311 311 312 312 312 312 311 311 311 311 311 310 310 310 310 309 309 309 309 308 308 308 308 308 307 303 300 298 296 295 293 290 289 291 291 288 285 283 282 282 282 282 281 280 279 278 276 275 275 274 273 273 272 272 272 273 272 272 271 271 271 270 270 269 269 268 268 267 267 267 267 268
309 307 307 309 310 311 313 314 313 312 312 312 312 312 312 314 314 314 313 312 312 311 309 310 309 309 309 310 310 309 309 308 308 308 308 308 308 307 306 303 300 297 296 295 293 289 288 289 288 287 285 282 280 281 281 282 281 279 278 277 275 275 274 273 273 272 271 270 270 270 270 270 269 269 270 269 269 268 268 268 267 267 267 267 267 268
305 305 305 306 306 308 311 313 312 310 310 310 310 310 311 312 312 311 310 309 308 307 307 307 307 306 306 307 307 307 307 307 307 307 307 307 308 307 305 304 301 297 296 295 292 288 287 288 288 287 285 282 280 280 280 281 280 279 277 275 274 274 274 273 272 270 269 268 267 268 269 269 268 268 268 267 267 267 267 268 267 267 267 268 268 268
301 302 301 301 301 302 304 305 304 304 306 307 308 308 310 312 312 311 309 309 308 307 307 307 307 307 307 307 306 306 306 306 306 306 306 306 306 306 305 304 301 298 296 293 289 286 287 288 287 286 285 282 280 279 279 280 279 278 276 274 273 273 273 272 271 269 267 267 267 267 268 268 268 268 267 267 267 267 267 267 268 267 267 268 268 268
297 297 297 297 298 298 298 298 299 300 301 303 307 309 309 309 310 309 309 309 309 308 308 308 308 308 308 307 307 307 306 305 305 305 305 304 304 305 305 304 302 300 297 293 288 286 287 288 287 286 284 282 279 278 279 279 278 277 275 273 273 273 272 271 270 268 267 266 266 266 266 267 267 267 266 266 266 267 267 268 268 268 267 268 268 268
295 295 295 295 296 296 297 297 297 298 298 300 305 309 308 308 308 308 307 308 307 307 308 308 308 308 308 307 308 308 307 306 306 306 306 305 304 304 304 304 303 301 298 293 288 285 286 286 285 285 283 280 278 278 278 278 277 275 274 273 272 273 272 270 268 267 266 265 265 266 266 266 266 266 266 267 267 267 267 268 268 268 268 267 268 268
294 295 295 296 296 297 297 297 298 299 300 302 305 305 303 303 304 303 302 302 302 303 305 305 306 306 306 306 307 307 307 307 306 306 306 305 304 304 304 304 304 302 299 294 290 287 286 285 284 283 281 279 278 277 277 277 275 273 272 272 272 272 272 270 268 266 265 265 265 265 265 265 265 265 266 266 267 267 267 266 267 267 267 268 268 268
Wind_Speed
3 5 8 9 11 12 12 13 15 16 13 11 11 9 11 13 12 16 10 5 8 6 11 16 17 19 20 19 18 17 18 19 20 20 19 19 16 13 15 15 14 13 10 10 15 19 21 21 21 22 22 23 24 24 26 27 27 26 27 27 25 24 23 22 21 20 19 17 16 15 14 13 12 11 11 10 10 9 9 9 8 7 8 9 10 11
3 7 12 15 15 11 7 8 11 14 12 10 11 10 11 11 12 16 9 5 7 5 10 14 16 19 18 18 18 18 18 19 20 21 20 20 17 14 15 15 13 10 6 9 12 15 19 20 21 22 21 23 25 24 27 27 27 26 26 27 27 25 23 22 21 21 19 18 17 16 15 14 13 13 11 10 10 10 10 10 8 8 9 10 10 11
6 10 18 18 9 3 2 4 8 12 12 10 8 7 9 10 10 13 6 5 6 4 8 12 15 17 18 19 20 20 19 19 20 21 18 17 16 15 14 12 10 8 9 10 11 13 17 19 21 21 19 23 25 25 26 27 27 26 25 26 25 24 24 22 21 21 19 17 16 14 15 14 13 12 13 12 12 11 10 9 9 9 10 10 10 11
7 9 14 11 5 5 6 4 6 9 9 8 7 7 9 9 8 9 3 3 5 7 9 13 13 15 16 17 20 23 21 18 19 19 16 14 15 16 14 9 7 10 11 11 12 12 14 17 20 20 19 21 23 23 25 26 27 27 25 26 25 24 25 23 22 22 18 18 19 17 17 17 13 12 14 13 12 11 10 9 11 11 11 11 11 11
13 8 1 2 4 7 9 5 7 8 6 9 10 10 11 10 11 11 4 3 7 10 7 9 12 12 12 13 15 14 13 12 14 14 13 12 14 15 13 8 8 10 10 11 13 13 13 16 18 20 19 21 23 23 26 28 27 26 25 25 24 24 24 23 24 23 21 22 23 20 18 17 14 12 12 11 10 10 10 11 11 11 11 11 12 12
16 7 4 3 4 6 8 7 9 8 7 9 11 14 16 14 14 14 8 7 9 8 2 3 10 9 5 7 8 5 5 8 8 9 11 12 12 11 10 9 8 9 8 10 13 13 13 14 17 20 20 22 24 24 27 30 27 26 26 26 25 24 24 24 26 27 25 26 25 22 19 15 13 12 11 11 10 10 10 10 11 11 11 12 13 14
8 3 4 6 7 7 8 10 11 10 8 8 5 7 12 13 13 12 9 5 6 7 1 3 8 10 4 6 9 5 6 9 7 7 11 11 10 9 9 7 9 9 9 9 11 12 13 14 15 19 22 25 25 24 29 32 30 30 29 27 26 25 24 26 29 30 29 26 24 22 19 15 14 13 11 12 11 11 10 9 10 11 12 12 14 14
5 5 4 6 7 7 9 10 10 11 8 5 1 3 2 6 9 8 6 6 6 9 6 4 4 12 10 7 11 11 10 10 9 10 12 12 12 13 12 7 10 11 10 10 11 12 14 14 16 20 23 26 26 25 31 36 36 35 33 29 28 27 27 30 31 32 31 28 24 22 19 15 13 13 11 11 12 12 12 11 11 11 11 12 14 15
4 6 7 9 7 8 8 4 4 12 9 1 3 3 3 1 3 3 4 6 7 9 8 7 7 9 12 5 11 14 13 12 14 15 15 15 14 14 14 8 9 11 11 11 12 13 14 15 19 22 23 25 27 28 34 40 40 36 34 32 31 30 31 33 33 34 33 30 26 23 21 17 14 13 12 11 11 12 12 12 11 11 11 12 14 15
3 1 3 8 8 7 3 4 3 6 5 1 4 4 5 2 1 2 4 5 6 9 10 8 10 7 12 4 9 10 9 11 13 13 14 16 14 11 10 8 8 9 10 11 12 13 14 17 20 22 22 24 27 31 35 39 39 36 35 36 35 34 35 34 35 35 33 30 28 26 24 21 17 15 14 12 12 11 11 11 10 11 11 10 11 12
2 3 1 4 6 2 5 6 6 3 2 4 4 2 2 3 2 3 5 3 5 11 10 12 16 11 11 2 8 7 8 11 11 10 12 13 12 11 8 7 9 9 9 10 11 12 13 16 19 20 21 23 26 32 34 35 37 38 39 40 39 37 36 35 36 36 34 32 30 28 26 25 21 17 16 14 12 11 10 10 10 10 10 9 10 11
6 5 3 2 1 3 5 4 3 4 1 2 3 2 2 4 3 3 4 3 6 10 5 12 19 17 11 4 6 6 9 13 11 8 10 11 10 10 6 7 8 9 9 10 10 10 11 13 16 18 19 21 24 29 33 33 36 39 40 41 40 39 38 37 37 37 35 33 31 29 27 26 23 21 20 17 14 13 12 11 10 10 9 10 10 10
7 8 8 4 2 5 5 2 2 2 2 4 4 4 4 4 4 4 5 4 8 10 2 9 13 14 13 11 9 9 8 11 11 9 9 10 10 10 6 7 8 8 9 9 9 9 10 11 12 14 18 20 22 27 31 33 36 39 40 41 42 41 39 39 39 38 38 36 33 31 29 27 25 23 22 19 17 15 13 13 13 12 11 10 10 9
3 3 9 7 2 7 11 8 5 4 7 8 7 7 5 5 5 6 6 6 9 9 3 5 4 7 9 9 13 17 14 13 12 10 10 10 12 10 4 5 6 6 6 7 8 9 10 11 11 13 17 19 20 24 28 31 36 39 39 40 41 39 38 40 40 40 39 37 35 33 30 28 26 24 23 21 20 19 16 15 16 16 14 12 11 10
6 6 9 11 4 11 16 13 6 3 7 10 7 6 7 6 6 7 7 8 8 7 2 5 2 5 5 2 8 14 16 14 12 10 10 11 13 7 3 4 4 5 5 5 7 9 10 11 11 13 17 19 20 23 27 28 33 37 38 39 39 37 38 40 40 39 39 37 34 33 31 28 27 25 24 23 21 21 20 19 19 18 17 15 13 13
8 9 8 7 2 12 15 9 4 4 4 7 5 6 7 6 7 8 9 8 4 7 6 5 4 6 7 7 5 8 10 14 13 11 11 13 13 8 4 4 5 5 6 5 6 7 9 10 10 13 17 18 19 24 27 29 32 37 39 38 36 38 39 39 40 39 38 37 34 33 31 29 27 26 25 24 22 22 22 22 21 19 18 16 15 14
6 5 6 5 1 6 5 2 5 3 3 5 6 7 4 1 3 7 9 5 0 7 10 6 7 8 10 13 9 11 11 14 14 13 16 15 14 12 9 7 7 7 7 6 5 5 8 9 9 12 16 18 20 25 28 31 34 38 40 37 33 35 39 39 40 40 37 36 34 33 31 29 28 28 26 25 24 24 24 23 22 20 18 17 16 14
5 4 3 4 2 2 2 2 2 2 1 5 5 4 2 2 1 3 7 4 4 9 10 9 13 12 10 9 6 14 14 14 15 15 17 15 12 11 10 8 8 8 7 6 6 6 7 9 9 12 16 17 20 25 28 30 31 33 37 37 31 32 39 39 38 37 35 35 35 33 32 31 30 29 28 26 25 24 25 23 21 20 18 17 15 14
2 3 3 2 1 2 2 2 3 3 3 1 1 1 1 2 4 5 6 6 7 9 9 13 17 14 12 8 4 12 16 15 16 17 16 14 12 9 8 9 9 7 6 7 8 7 7 8 9 12 14 16 19 23 26 26 28 29 32 34 30 30 37 38 36 34 33 35 36 34 33 32 30 30 29 27 26 25 25 23 21 20 17 15 14 13
2 4 5 1 2 3 3 4 5 6 4 0 2 2 1 2 3 4 5 5 7 8 9 13 15 12 9 7 7 11 16 16 17 16 14 14 13 9 7 10 10 7 8 9 8 8 8 8 11 14 15 16 18 22 25 25 26 27 28 30 30 29 34 38 36 35 34 35 36 35 33 32 31 31 30 29 29 27 25 23 21 19 16 15 14 14
3 4 6 0 1 3 5 7 9 10 9 6 5 6 5 3 1 3 5 6 7 7 7 8 12 13 4 1 6 8 12 15 15 13 10 10 12 10 8 10 10 7 8 9 9 9 9 9 11 14 16 16 17 20 23 23 24 26 26 29 30 30 35 37 36 38 37 35 36 36 34 33 32 32 31 30 30 28 25 23 20 18 17 15 15 14
4 5 8 4 2 7 8 9 12 13 11 10 9 9 10 9 5 4 8 7 5 6 8 8 11 15 5 4 2 5 6 8 10 9 7 6 7 7 7 10 10 8 8 8 9 9 9 9 10 13 16 18 18 19 21 22 23 25 26 28 29 30 36 38 37 39 40 37 37 37 35 34 34 33 32 31 29 28 25 22 20 19 17 17 16 16
6 2 7 8 6 7 7 3 3 4 3 4 6 8 9 9 9 9 8 6 5 6 9 10 12 16 9 1 3 4 1 4 6 6 6 5 6 7 8 10 9 9 8 7 8 8 9 8 9 12 16 18 19 20 22 22 23 25 27 28 29 30 34 38 39 40 40 38 38 37 36 35 34 34 33 31 30 27 25 22 20 19 18 18 17 16
2 2 5 8 6 5 3 2 2 3 0 3 6 8 9 10 11 10 6 3 3 6 9 10 11 14 11 5 5 8 8 9 8 8 9 9 7 7 9 9 7 8 7 7 8 7 6 6 7 9 11 14 16 19 21 22 22 24 26 28 30 30 31 36 40 40 39 39 38 36 36 36 35 35 33 31 30 27 24 22 20 19 19 18 17 15
3 3 6 6 6 7 5 4 2 0 3 6 8 10 11 12 12 8 5 3 5 13 17 12 9 12 10 4 7 12 13 10 10 11 12 11 8 7 8 7 7 7 7 7 7 6 6 7 8 8 8 10 14 17 19 20 21 23 26 28 29 29 30 35 40 41 39 39 38 36 36 36 35 35 34 31 29 26 24 22 21 20 19 17 16 14
5 5 6 7 8 8 9 11 5 1 4 6 8 11 12 15 15 10 7 6 10 18 19 13 12 15 14 11 14 19 15 10 11 11 8 7 7 7 6 6 6 7 8 9 9 7 7 7 8 8 8 9 13 16 17 19 21 22 24 26 27 27 30 36 40 41 39 39 38 36 36 36 36 35 34 31 28 25 24 23 21 20 18 17 16 15
2 3 9 13 14 12 12 16 11 4 5 7 9 13 12 14 17 13 8 11 14 14 13 15 19 19 17 18 23 26 21 17 19 16 9 7 7 7 7 7 7 7 8 9 8 7 7 7 8 10 10 9 12 15 16 18 20 22 23 25 26 27 30 36 40 39 37 37 37 36 35 36 36 35 33 30 27 25 24 23 21 19 18 17 16 15
0 5 11 16 19 17 17 21 21 19 14 11 12 14 14 14 15 13 15 18 15 10 11 18 23 20 15 17 24 27 24 21 23 22 17 12 9 8 8 8 9 9 8 8 9 9 9 10 10 10 10 10 12 14 15 17 19 21 23 25 26 27 32 38 38 35 34 34 35 34 34 35 35 33 31 29 27 24 23 22 21 19 18 17 15 16
2 6 9 12 15 15 16 20 23 25 23 17 14 15 16 16 16 20 25 20 12 13 17 18 21 20 15 17 24 26 25 24 26 25 22 17 13 7 5 7 10 11 10 11 12 12 12 12 12 11 10 11 13 15 16 18 19 21 23 24 26 27 34 39 36 32 32 32 31 33 34 34 33 31 29 28 26 24 23 22 21 19 18 16 15 15
3 5 8 12 14 15 17 19 22 24 22 20 18 17 14 15 20 26 24 15 14 23 25 21 23 23 17 18 25 27 27 27 25 25 22 19 18 12 6 9 16 16 12 13 14 14 14 14 14 14 13 11 11 14 16 18 20 22 23 24 25 26 33 39 36 33 34 32 31 34 36 34 33 31 30 29 27 25 24 22 20 19 17 15 15 15
4 9 11 11 12 15 18 22 24 22 21 21 21 18 17 21 26 25 18 12 16 22 23 22 23 20 16 20 26 29 29 26 25 26 23 20 22 19 13 15 20 19 15 13 13 12 13 14 15 15 15 13 13 14 15 16 19 22 22 23 26 29 35 40 38 37 37 34 33 36 36 35 34 32 31 29 27 25 23 22 20 18 16 15 15 14
5 8 9 9 10 12 16 21 21 19 20 22 20 20 24 28 26 21 17 18 19 19 20 19 16 13 15 21 24 26 26 26 29 27 21 21 24 20 15 16 18 17 15 13 12 11 11 13 14 16 16 15 14 15 16 18 19 20 22 25 28 32 37 39 39 38 37 35 35 37 37 36 35 32 31 29 27 25 23 21 19 17 16 15 14 13
5 6 6 8 9 10 16 21 18 14 14 14 17 26 32 29 24 22 24 26 26 21 17 15 12 12 16 19 20 23 26 27 26 20 16 20 22 17 14 16 15 14 13 12 13 13 13 11 12 14 15 14 15 19 23 25 23 22 24 27 30 33 36 38 38 38 36 35 37 37 37 37 35 33 30 28 27 25 22 20 19 17 16 15 13 12
7 8 6 7 7 9 16 18 14 11 11 13 18 23 25 25 27 28 28 29 28 23 19 17 17 17 20 22 22 23 27 27 21 14 15 18 17 14 14 16 15 15 15 15 14 14 14 12 9 10 12 14 18 21 23 25 24 23 25 27 30 34 36 37 37 37 36 36 37 37 37 36 35 32 30 28 26 24 22 20 18 17 15 14 13 12
10 10 8 7 6 7 10 11 11 10 12 14 13 12 15 23 29 29 28 28 29 28 25 23 23 24 26 27 25 25 28 27 18 14 17 21 17 13 13 16 18 17 16 15 15 14 12 8 6 6 8 12 16 19 20 22 24 23 24 28 32 34 36 37 36 35 35 35 35 36 36 35 34 31 29 27 25 23 22 20 18 17 15 13 12 11
13 11 8 6 7 6 5 9 11 7 3 3 5 10 15 19 20 20 23 27 29 28 27 25 25 27 29 28 26 26 27 23 15 13 18 23 19 14 13 16 19 19 17 14 14 12 8 6 7 8 9 13 17 20 22 23 24 25 26 29 34 35 36 36 35 33 34 34 34 35 35 35 33 31 29 27 25 23 21 19 18 16 14 12 11 11
15 12 8 8 9 7 7 10 11 8 4 4 7 12 14 14 16 17 19 22 23 21 22 24 25 27 29 29 28 27 25 17 11 12 19 24 20 15 15 17 18 18 17 13 10 8 6 7 8 10 14 18 20 23 24 25 27 28 29 31 34 36 37 37 35 35 35 35 34 34 34 34 33 31 28 27 25 22 21 19 17 15 14 13 12 11
17 14 12 11 10 9 9 9 8 10 9 10 13 17 17 18 22 23 21 18 13 10 14 20 24 27 28 26 26 25 20 13 9 12 18 24 20 13 13 16 16 16 16 12 7 6 5 7 10 14 19 21 21 24 27 28 30 32 32 34 37 38 39 38 37 37 37 35 34 33 32 32 31 29 27 25 23 21 19 17 16 15 14 13 12 11
21 16 14 13 9 9 11 9 7 11 9 11 17 21 20 22 22 21 20 11 6 9 17 23 25 26 24 22 23 21 14 10 10 12 16 22 19 11 11 14 13 13 12 9 7 7 7 9 11 14 18 18 19 25 29 31 34 35 34 36 39 40 39 39 38 39 38 36 34 32 30 29 28 26 24 22 21 19 17 16 14 13 13 12 10 9
21 13 13 14 10 11 15 10 5 7 5 9 16 18 20 23 22 19 15 4 9 17 24 25 27 26 22 21 20 16 12 12 13 14 16 18 13 7 9 12 11 11 10 8 7 8 10 13 12 11 12 16 21 27 30 34 36 34 34 38 40 40 41 41 39 39 38 36 35 33 31 29 27 25 23 21 19 17 15 14 13 12 12 11 9 7
15 11 11 15 12 13 17 12 7 8 5 8 14 17 19 20 17 16 14 7 12 22 23 23 26 24 21 20 15 12 14 16 16 15 16 14 10 7 9 8 5 5 6 6 7 8 10 11 11 9 9 16 23 27 33 37 33 31 35 37 35 38 43 42 39 39 38 36 35 34 32 30 27 25 22 20 18 17 15 14 13 12 11 9 8 8
10 8 9 13 13 13 13 11 10 10 7 10 16 19 17 13 10 13 15 15 18 21 18 19 21 20 19 20 17 15 17 18 17 16 14 14 13 12 9 6 4 4 2 3 6 8 7 5 7 7 8 15 23 29 37 36 30 32 36 30 27 37 43 41 40 41 39 38 36 34 32 30 27 24 22 20 18 17 16 15 13 11 10 9 8 7
9 8 9 10 10 10 10 9 10 8 9 17 21 17 13 13 12 13 16 17 18 19 16 16 17 16 18 19 18 18 19 18 18 17 15 14 13 12 10 9 9 8 6 5 6 10 10 6 5 8 12 18 25 33 39 34 28 33 33 25 29 41 44 42 44 44 41 40 37 35 33 31 28 26 24 21 20 18 17 15 13 12 10 9 8 7
7 7 6 5 6 8 8 8 8 7 9 18 20 13 13 17 17 16 17 15 15 15 13 13 14 15 16 16 17 18 17 16 16 16 15 13 11 11 11 9 9 10 9 6 6 11 13 8 6 9 14 21 28 35 38 33 29 29 26 26 37 45 44 45 47 45 43 42 39 37 35 33 31 28 25 23 21 20 18 16 14 12 10 9 8 7
3 4 7 6 4 6 7 5 5 8 6 9 14 15 17 18 16 15 17 16 14 14 12 11 13 15 15 16 16 16 16 16 16 16 15 13 11 11 9 8 10 11 9 6 6 11 14 12 10 10 13 20 30 37 37 34 31 27 26 34 46 49 48 49 49 46 45 43 39 38 36 33 31 29 26 24 23 21 19 18 15 13 11 9 8 7
6 8 7 5 6 8 9 7 6 9 11 10 10 11 13 13 10 9 11 11 11 12 12 12 13 14 15 14 13 12 13 15 15 14 13 11 11 9 6 8 10 9 8 8 8 11 14 12 11 11 11 16 29 38 38 35 34 32 34 43 51 52 52 53 50 46 45 42 39 38 36 33 30 28 26 24 23 21 20 18 17 14 12 10 9 7
7 8 6 7 10 10 6 7 11 13 14 14 14 14 14 12 10 8 7 7 7 9 11 13 14 14 14 14 13 13 15 16 16 16 14 12 11 9 6 7 7 7 8 9 9 11 11 8 9 12 11 13 26 38 39 35 33 34 40 49 53 53 54 54 51 47 44 42 40 38 36 35 32 29 27 25 23 22 20 18 17 15 12 10 9 8
8 11 10 9 11 11 10 12 17 20 20 17 13 12 11 10 9 7 6 6 7 8 10 11 11 10 11 12 12 12 13 15 15 15 14 12 11 10 8 6 5 6 6 5 6 10 10 9 12 15 12 14 26 37 37 33 31 35 44 51 52 54 55 53 51 48 43 42 42 39 37 36 34 32 30 27 24 23 21 19 18 15 13 12 11 9
10 13 12 11 13 14 14 16 18 18 19 17 11 7 7 8 9 9 9 8 9 10 10 11 10 9 9 11 12 11 12 12 12 13 13 11 11 11 10 7 6 7 8 7 10 14 14 13 15 15 14 18 27 34 35 32 33 39 47 51 53 56 55 51 48 47 43 42 42 38 35 35 34 32 31 28 25 22 21 19 18 15 14 13 11 9
10 12 12 11 12 12 12 14 14 13 15 17 13 9 9 9 9 9 10 11 11 10 11 12 13 12 11 12 12 11 12 12 12 13 13 12 12 13 13 11 8 9 9 11 14 16 15 15 16 16 15 19 27 33 34 33 35 43 49 52 55 57 55 50 46 44 41 40 40 37 35 34 32 29 30 29 26 23 20 18 16 14 13 12 10 7
10 12 11 10 12 14 15 15 15 13 14 13 11 10 11 11 10 11 13 14 14 13 12 12 13 14 14 13 12 11 12 12 13 13 13 13 14 15 15 14 12 10 11 11 12 13 15 16 16 15 16 21 28 33 32 32 38 45 49 52 56 57 56 53 47 41 39 40 39 38 37 36 31 29 29 28 25 24 21 18 15 13 11 10 9 7
Wind_Direction
192 226 232 238 240 239 236 227 231 249 269 284 284 280 273 274 271 272 276 177 182 230 245 248 255 258 262 265 264 266 267 269 270 266 263 264 266 264 256 252 241 227 209 180 186 190 186 185 182 182 183 179 179 181 178 176 176 175 176 177 178 179 177 175 175 175 176 176 177 176 175 178 176 176 185 192 194 188 195 220 238 250 260 266 278 288
199 228 238 242 250 259 265 257 249 256 267 268 266 273 271 265 266 272 273 161 164 219 259 263 266 264 262 264 264 263 262 263 263 261 263 267 269 267 260 254 243 227 177 163 181 182 178 176 174 177 177 176 178 180 180 179 177 177 177 180 181 179 179 180 179 179 181 182 180 178 179 175 173 176 179 180 186 192 204 226 240 248 258 268 277 283
217 235 246 248 252 263 277 277 262 258 259 258 254 259 264 264 271 274 259 145 159 215 267 275 276 273 268 264 261 255 253 253 253 258 264 268 270 267 262 258 237 194 162 172 178 174 173 170 171 174 175 179 181 181 182 180 177 178 178 181 182 180 181 181 182 183 180 180 178 175 175 168 165 175 179 177 183 198 213 230 243 248 256 266 273 278
222 239 252 248 221 233 245 231 237 250 247 239 238 244 253 259 270 271 241 144 202 224 265 287 284 275 267 256 250 248 246 245 251 258 260 259 262 262 264 266 227 185 172 179 180 177 173 171 175 177 176 179 181 181 182 181 180 180 181 182 181 180 182 182 185 185 177 177 177 173 173 170 167 178 188 191 200 215 224 231 242 250 254 262 269 274
239 242 233 168 177 233 242 211 213 234 240 229 226 236 249 254 257 264 295 346 270 245 251 292 287 270 259 247 239 238 235 238 247 252 254 252 252 257 262 255 215 188 180 181 182 180 177 178 182 183 180 178 181 183 183 184 182 181 183 183 181 182 183 185 186 183 179 183 183 179 179 179 179 183 192 197 205 216 224 230 239 247 251 259 268 272
247 231 117 169 188 209 227 228 218 217 246 241 221 229 244 257 265 273 308 346 304 274 190 339 304 277 230 229 231 196 190 219 229 235 245 250 246 245 247 232 199 183 184 187 183 178 180 183 183 185 182 180 185 186 185 186 183 182 184 182 181 183 182 187 190 188 188 189 188 186 183 181 184 187 192 193 192 196 208 222 230 239 250 260 268 271
244 177 124 221 218 204 223 248 231 207 239 251 229 240 248 259 270 277 296 306 284 283 264 55 312 286 242 222 235 223 211 207 194 216 235 245 245 238 235 210 179 180 185 188 184 176 179 181 181 186 185 185 188 187 188 189 188 188 187 181 182 184 184 191 195 195 195 192 191 191 188 184 185 187 188 187 184 183 191 210 224 239 255 263 267 270
193 171 174 212 219 218 225 249 227 198 224 247 34 360 261 251 262 263 274 261 262 290 280 176 237 276 275 233 224 231 235 220 205 221 233 239 241 241 243 210 170 182 183 179 182 179 182 183 185 189 188 190 188 185 189 192 193 194 189 184 183 185 189 195 197 197 198 196 193 191 188 183 183 183 177 176 185 194 203 218 231 244 256 263 267 270
146 182 194 183 196 222 222 259 204 189 214 259 68 39 65 127 251 233 249 260 272 291 275 200 181 264 281 234 196 210 223 227 225 230 240 246 243 239 242 220 174 180 178 176 182 182 184 186 188 190 189 190 188 186 191 194 195 194 190 188 187 188 193 197 198 198 199 198 196 192 188 184 182 182 177 179 195 209 218 226 234 243 252 259 266 271
68 170 210 181 196 224 198 31 14 200 209 131 110 86 76 98 141 183 245 271 281 274 261 211 169 233 284 253 169 192 208 220 228 232 237 245 246 238 230 206 172 174 176 179 183 183 186 188 189 188 186 185 187 190 193 194 194 192 190 191 191 192 197 198 199 199 198 198 197 195 193 190 186 185 186 191 199 207 215 223 229 238 243 244 248 259
131 97 14 213 214 211 99 62 17 14 108 130 140 117 123 201 191 214 241 264 277 265 248 202 181 206 274 262 146 178 199 200 211 224 229 236 244 239 212 181 172 175 177 178 181 184 184 185 184 183 182 181 185 190 192 192 193 193 193 194 194 195 198 199 199 199 197 197 198 197 197 194 189 186 189 191 195 199 203 209 218 228 231 229 233 246
208 173 190 211 162 114 106 92 46 48 94 173 173 216 245 232 209 219 222 171 244 264 232 182 186 199 235 230 155 189 200 192 193 212 236 244 247 240 199 169 175 176 175 174 177 179 176 176 178 179 179 177 179 186 190 192 194 194 195 195 195 196 199 200 199 199 197 197 198 198 198 198 194 193 194 192 193 197 200 204 210 218 223 230 240 252
218 205 190 152 106 177 170 152 110 105 182 208 193 203 248 257 243 236 226 194 232 257 196 164 190 207 234 248 242 250 233 202 199 211 242 254 251 245 207 167 172 172 170 169 170 174 173 175 177 179 179 175 177 183 187 192 194 195 196 196 196 197 200 200 199 198 198 198 199 199 199 201 199 199 201 201 201 202 203 208 215 219 222 229 239 247
225 217 173 164 186 190 186 195 208 189 184 193 189 188 209 238 260 259 246 239 245 253 205 142 185 237 258 258 236 241 239 217 211 216 231 246 247 246 210 147 157 165 167 168 171 174 176 179 178 179 180 177 178 183 186 190 193 194 195 196 197 198 199 200 198 197 198 198 199 200 201 202 202 201 203 206 207 208 208 212 219 223 226 231 237 243
245 272 173 171 172 169 188 210 215 137 173 194 193 196 214 226 246 258 255 257 272 288 260 146 173 254 280 295 198 221 231 218 216 222 221 235 240 233 125 121 149 163 175 177 176 179 178 177 176 178 182 181 179 181 185 189 192 193 195 196 197 197 198 199 197 196 196 197 197 199 200 201 202 203 204 206 208 211 214 216 219 224 229 234 238 243
242 263 164 145 126 161 182 210 171 115 178 194 181 203 230 232 227 247 269 274 305 316 281 200 223 258 274 284 214 194 220 210 209 223 227 237 237 219 179 179 179 175 186 191 187 185 178 175 175 178 182 182 178 182 187 190 192 194 196 195 195 197 198 197 196 195 195 195 195 197 198 199 200 202 203 205 208 212 216 217 220 225 230 234 238 244
239 267 135 119 331 163 175 219 167 183 202 160 175 203 214 300 232 247 271 285 184 277 271 244 257 266 274 276 227 181 204 207 202 218 230 236 235 224 218 211 200 193 184 181 188 186 176 174 177 182 185 181 177 183 189 192 195 196 196 194 190 195 199 196 196 195 193 193 193 194 196 196 198 200 201 204 207 211 215 217 221 225 229 233 238 244
241 277 168 167 231 168 359 339 163 270 249 142 187 205 113 51 324 251 266 275 247 261 271 266 271 273 275 281 200 175 198 204 202 219 230 232 230 227 226 222 219 202 168 161 178 185 186 183 181 187 192 187 182 185 189 191 195 197 197 194 187 191 197 195 194 193 190 191 191 191 193 194 196 199 200 202 205 209 213 216 219 223 228 233 238 243
220 259 231 173 279 122 104 247 193 228 237 146 287 273 91 217 207 202 230 251 254 258 269 273 276 272 259 266 217 186 195 199 206 218 225 223 222 224 223 229 230 203 169 177 183 182 191 194 191 191 194 192 188 190 190 190 193 194 195 195 190 191 196 195 192 190 190 191 191 190 192 193 195 198 199 200 203 207 210 213 217 222 226 231 235 239
184 227 243 24 5 128 142 223 203 184 191 164 309 256 205 242 222 210 214 228 243 248 265 278 281 276 256 254 247 209 193 198 210 216 219 220 221 219 215 229 234 210 192 196 189 181 184 195 202 196 193 193 193 193 191 187 188 188 187 190 190 190 193 193 192 191 190 191 191 189 190 192 194 197 198 199 202 205 208 211 216 220 224 227 230 233
165 215 236 6 32 195 195 207 196 188 181 177 220 217 195 197 253 287 245 232 238 243 254 265 271 273 264 172 261 230 192 201 213 215 215 213 218 219 217 229 236 226 210 201 195 190 184 189 198 194 191 194 194 193 189 184 184 184 183 186 186 186 189 190 190 191 191 190 191 190 189 191 193 195 197 199 202 204 207 210 214 219 223 224 226 229
184 205 222 211 189 217 221 204 200 202 189 181 195 199 196 189 183 237 241 226 217 232 243 245 259 263 251 88 299 237 189 216 228 216 208 207 213 218 223 231 234 230 224 209 201 199 193 190 187 184 185 187 189 190 187 182 181 182 183 185 183 183 188 189 188 190 191 189 189 190 188 190 192 193 195 197 199 202 205 209 214 218 222 223 226 229
192 169 221 231 226 226 230 208 219 239 212 209 211 202 201 191 187 214 228 223 208 216 236 243 252 260 257 205 271 254 253 293 265 218 210 217 211 212 225 231 231 231 229 217 207 202 199 195 184 181 182 184 189 189 186 183 181 184 185 185 184 184 186 189 190 190 190 189 188 188 187 189 190 191 193 194 197 200 203 208 213 217 220 224 226 229
156 99 222 246 270 275 267 100 42 6 267 236 234 216 209 202 205 219 231 245 233 216 228 238 244 259 265 239 237 269 282 274 256 236 238 240 223 217 227 225 221 227 226 219 215 201 187 182 181 185 185 186 190 190 187 184 182 185 186 185 187 186 183 186 190 189 188 188 187 185 186 188 188 189 191 192 195 199 203 206 211 215 219 223 225 227
177 183 206 235 259 268 266 236 229 302 214 229 233 221 220 219 218 230 251 263 251 238 238 244 248 254 262 236 232 262 265 245 234 236 243 247 234 216 220 218 215 217 215 215 213 193 175 177 187 196 192 187 190 191 189 186 183 186 187 187 189 185 181 186 189 188 187 187 184 183 185 186 186 187 189 190 194 198 201 204 209 214 218 220 223 226
196 185 190 218 235 234 241 245 247 115 188 224 239 226 220 221 219 226 241 231 239 241 238 243 254 256 266 278 274 274 268 250 249 246 232 232 231 217 214 212 208 208 213 215 209 191 187 192 197 201 196 189 190 191 189 186 185 187 188 189 188 183 181 186 188 187 186 185 183 181 183 183 185 186 188 190 193 197 201 204 207 212 216 218 221 225
197 208 207 224 238 235 241 254 268 280 207 197 224 227 218 218 220 223 233 231 238 246 241 242 251 257 267 275 278 279 276 274 276 273 255 229 222 217 221 223 218 218 218 214 208 201 195 195 202 204 201 194 191 191 189 186 186 186 186 188 187 183 182 185 187 185 183 182 181 180 180 182 184 185 187 189 192 196 201 205 206 208 212 216 222 228
216 248 227 232 241 241 248 258 265 270 257 219 213 222 218 218 218 217 229 235 240 256 254 246 251 259 264 266 270 274 276 279 279 277 275 268 250 227 220 223 226 228 223 215 215 211 204 204 205 201 197 193 191 192 191 189 187 186 186 187 185 183 185 187 184 181 178 178 179 178 179 181 183 184 185 188 191 194 199 203 204 207 212 218 225 232
204 243 241 249 257 257 262 265 265 268 268 254 238 235 228 220 215 222 233 234 231 246 252 253 258 262 262 262 266 272 276 277 277 277 280 281 274 249 198 209 236 236 223 221 226 220 214 215 210 200 196 191 186 188 190 189 188 187 188 187 183 182 187 187 182 176 176 175 175 177 178 178 179 180 183 186 189 193 197 200 204 208 215 221 226 232
201 246 250 258 267 266 264 265 263 264 270 270 264 263 262 251 238 237 241 234 224 240 250 255 259 262 264 266 268 272 273 274 277 279 280 282 278 266 248 260 269 263 241 228 232 231 224 222 219 213 206 191 182 186 188 187 187 187 187 185 180 180 185 186 182 178 177 174 173 176 176 175 176 179 182 185 189 193 196 199 204 209 214 220 226 231
211 239 245 252 262 257 251 253 254 256 262 267 269 277 282 273 261 255 256 245 233 242 250 252 257 263 265 264 264 266 268 272 274 274 276 280 278 275 277 276 273 271 264 251 244 240 232 226 225 226 217 203 194 190 185 183 184 185 185 181 179 181 184 184 182 180 179 176 174 174 174 174 176 178 182 186 189 192 196 199 204 208 213 219 224 230
208 232 236 238 247 245 240 243 245 249 259 265 270 271 261 257 260 262 260 254 247 249 254 255 254 253 251 255 259 262 266 268 268 269 273 274 273 277 280 271 265 267 268 263 257 253 243 231 226 226 224 214 201 191 185 182 179 180 183 181 180 182 183 183 181 179 177 175 172 172 173 174 175 177 181 184 188 192 195 199 202 207 212 216 220 227
196 216 213 217 236 240 236 241 245 249 259 258 249 247 245 247 255 259 257 256 252 251 254 252 244 241 247 255 261 264 265 262 260 262 267 268 271 277 274 266 266 266 265 266 264 261 259 251 233 224 225 218 206 200 197 191 184 182 185 184 183 182 181 180 180 177 174 173 172 172 174 174 175 177 179 183 188 191 193 197 201 205 210 214 218 223
202 216 220 219 237 242 237 243 247 239 236 233 232 236 239 243 247 247 249 252 251 249 249 250 256 260 260 258 257 259 261 260 261 262 263 266 273 276 272 270 270 269 270 271 268 265 266 263 241 221 221 217 209 204 200 194 190 189 187 184 182 180 179 178 177 175 173 171 172 172 173 174 175 176 178 182 186 188 191 195 199 203 207 210 214 218
212 220 227 223 233 241 236 240 241 229 228 237 238 230 229 235 239 244 250 253 253 253 252 252 256 257 257 258 257 257 258 261 268 273 270 270 270 267 272 274 273 273 273 271 269 268 264 249 222 203 204 204 197 191 187 188 189 186 182 181 179 178 178 177 175 173 172 170 171 172 172 173 174 174 177 181 183 185 189 193 196 199 203 206 211 217
220 225 225 222 230 234 217 217 228 238 243 220 213 216 225 233 238 247 254 251 248 249 250 251 251 250 253 257 256 257 260 264 273 274 269 269 266 259 260 265 269 272 268 265 268 264 242 201 194 192 183 178 178 179 181 184 184 179 175 177 177 176 176 175 172 171 170 170 171 173 173 173 173 173 176 179 181 183 186 190 193 195 197 199 206 215
217 222 223 225 224 222 223 222 228 254 265 169 186 215 222 223 223 231 246 246 238 237 243 247 249 250 251 253 254 258 263 268 275 269 264 264 261 254 251 254 260 264 264 264 260 242 203 182 187 179 168 166 170 178 181 182 181 175 171 172 174 173 173 172 171 172 171 171 173 173 174 175 174 174 175 177 179 181 184 188 190 191 193 196 201 210
210 213 217 227 221 211 231 236 226 242 238 200 208 224 224 225 227 232 246 247 224 215 237 243 245 246 247 250 255 258 261 263 260 258 261 263 260 244 240 248 250 252 259 256 230 198 177 175 175 169 165 164 171 182 184 181 178 173 169 170 171 171 171 172 172 172 171 171 172 173 174 176 175 174 174 175 178 181 183 186 188 189 192 196 200 206
218 216 216 228 226 214 232 238 219 231 230 200 214 226 230 235 236 239 251 250 178 204 238 242 245 247 247 248 251 255 259 256 249 249 253 259 262 248 237 247 246 244 250 240 210 201 186 167 161 163 165 165 175 184 184 180 175 171 169 171 171 171 172 174 174 172 170 169 170 171 172 173 173 173 173 175 179 181 183 186 188 188 191 196 199 202
220 217 216 226 228 220 230 239 230 238 226 192 211 222 227 235 237 240 251 231 165 210 231 237 244 247 246 247 248 250 252 247 247 251 250 256 267 258 241 246 241 232 230 216 202 196 176 165 162 163 170 179 183 183 181 177 173 171 173 172 172 173 176 176 174 171 169 168 168 169 170 171 173 174 176 178 180 181 184 185 186 188 191 193 192 197
216 209 211 221 225 221 227 235 240 238 211 189 215 223 224 232 237 239 245 230 210 222 227 231 240 245 247 250 251 250 249 248 251 256 258 263 271 257 244 248 250 239 226 208 197 178 164 169 176 178 189 188 181 178 177 174 171 174 175 173 174 178 178 174 170 168 167 166 166 167 168 170 172 175 177 179 180 180 182 182 185 189 189 186 191 204
208 206 209 217 221 223 226 233 246 243 200 193 223 227 221 228 236 234 238 241 237 238 238 237 242 246 248 251 253 254 256 259 260 258 258 258 257 253 242 220 215 235 208 175 185 172 159 164 170 174 189 185 180 177 175 172 173 176 175 173 178 179 174 168 166 166 165 165 164 165 166 167 170 173 175 178 179 179 181 181 184 188 187 187 198 212
192 200 210 208 209 224 230 226 237 236 185 197 221 226 214 221 236 240 242 245 246 248 249 246 247 249 251 253 256 258 260 262 261 257 254 250 249 251 238 210 208 217 199 183 193 184 177 174 171 178 184 184 182 178 174 174 177 177 175 176 178 174 169 167 167 165 164 164 163 164 166 167 170 173 174 177 179 179 180 182 183 188 189 189 198 208
204 203 227 216 192 212 226 219 234 250 207 203 216 221 213 219 230 239 246 251 252 253 253 252 253 253 253 258 261 262 262 260 257 256 256 252 245 244 233 209 204 212 205 198 195 185 182 183 180 182 183 182 181 178 177 179 178 176 176 176 172 169 166 166 166 164 163 163 163 164 166 168 170 172 174 175 176 177 180 181 182 188 189 185 191 202
283 313 307 289 247 246 265 273 293 312 299 232 228 237 241 242 247 254 258 261 262 263 266 269 270 270 270 272 269 266 264 262 258 257 257 253 248 241 226 205 206 209 203 193 182 182 189 192 183 177 180 182 182 181 182 182 178 177 179 174 170 168 166 165 165 163 162 161 161 164 165 166 167 169 170 172 174 176 180 179 179 183 185 184 190 197
307 321 316 305 313 313 304 309 331 333 325 308 283 272 271 276 289 305 302 295 296 303 307 307 307 307 308 309 306 299 291 287 284 280 275 272 269 258 228 210 212 204 193 194 190 185 190 190 183 180 182 185 186 186 187 186 183 181 178 173 171 170 168 165 163 161 160 159 160 162 162 161 162 164 167 170 172 175 178 178 176 178 182 185 188 190
304 319 320 308 311 311 311 345 353 334 316 313 311 306 305 308 318 334 332 320 327 333 328 328 332 331 331 335 335 325 315 314 313 307 302 300 296 290 266 237 228 212 203 206 197 183 180 180 188 191 189 189 191 191 190 190 189 184 176 172 171 170 168 166 162 159 158 157 157 159 161 160 161 163 166 168 171 174 176 177 177 177 179 184 186 184
310 322 326 315 303 296 293 311 317 305 295 295 296 299 312 323 328 329 319 311 318 319 315 318 324 328 329 327 324 320 316 315 314 310 308 309 307 303 296 278 255 234 227 217 183 175 182 194 200 198 196 195 194 192 191 191 190 184 176 173 172 170 167 165 162 158 157 157 156 158 160 162 162 163 166 169 171 173 175 177 176 176 181 186 184 175
292 296 297 295 293 291 289 294 296 292 289 290 294 313 334 331 322 315 310 309 312 312 310 310 309 309 308 304 302 303 301 297 298 300 301 302 300 295 290 281 249 224 220 210 191 190 197 205 202 199 202 201 193 189 189 191 189 184 177 173 172 170 167 164 161 157 156 156 156 156 158 161 162 164 167 168 169 172 176 178 176 177 183 185 175 161
265 268 273 280 282 280 281 287 291 291 288 288 296 317 325 319 316 315 313 313 312 308 302 299 297 294 289 285 286 284 280 278 279 282 284 285 283 283 284 279 255 227 219 211 203 202 207 209 205 202 203 199 190 186 189 190 186 181 177 175 174 172 167 162 157 154 154 154 154 155 157 159 161 164 167 168 168 171 175 176 174 173 175 178 177 172
264 264 264 267 271 272 275 277 278 278 278 284 302 318 317 315 315 310 307 306 303 299 296 293 294 295 292 287 282 276 274 275 275 275 276 275 274 276 277 275 263 243 225 212 205 207 211 211 207 203 202 197 190 187 189 187 180 177 176 176 175 173 169 162 155 153 154 155 155 156 158 159 160 164 166 167 168 170 171 174 177 178 178 182 186 186